• In Russia
  • List of Countries
  • For 7 days
  • Water Temperature
  • Satellite Maps
  • Weather Map
  • Weather Widgets
  • user-avatar
    Login

    Hourly Weather Barra

    Today, 18 August, Saturday

    Time Temperature Precipitation Wind Pressure Humidity
    00:00 +18°C° 0 mm 1 mps 750 mmHg 89%
    01:00 +18°C° 0 mm 1 mps 750 mmHg 90%
    02:00 +18°C° 0 mm 1 mps 750 mmHg 90%
    03:00 +18°C° 0 mm 1 mps 750 mmHg 90%
    04:00 +16°C° 0 mm 1 mps 750 mmHg 89%
    05:00 +16°C° 0 mm 2 mps 750 mmHg 88%
    06:00 +17°C° 0 mm 2 mps 751 mmHg 87%
    07:00 +17°C° 0 mm 2 mps 751 mmHg 85%
    08:00 +20°C° 0 mm 2 mps 751 mmHg 70%
    09:00 +25°C° 0 mm 1 mps 751 mmHg 54%
    10:00 +29°C° 0 mm 2 mps 752 mmHg 42%
    11:00 +29°C° 0 mm 2 mps 751 mmHg 37%
    12:00 +30°C° 0 mm 2 mps 751 mmHg 33%
    13:00 +30°C° 0 mm 3 mps 750 mmHg 29%
    14:00 +30°C° 0 mm 3 mps 750 mmHg 31%
    15:00 +29°C° 0 mm 3 mps 750 mmHg 34%
    16:00 +29°C° 0 mm 2 mps 749 mmHg 34%
    17:00 +26°C° 0 mm 2 mps 749 mmHg 44%
    18:00 +23°C° 0 mm 2 mps 749 mmHg 55%
    19:00 +21°C° 0 mm 1 mps 750 mmHg 65%
    20:00 +20°C° 0 mm 1 mps 750 mmHg 66%
    21:00 +20°C° 0 mm 1 mps 750 mmHg 68%
    22:00 +19°C° 0 mm 1 mps 751 mmHg 69%
    23:00 +19°C° 0 mm 1 mps 751 mmHg 69%

    Tomorrow, 19 August, Sunday

    Time Temperature Precipitation Wind Pressure Humidity
    00:00 +19°C° 0 mm 1 mps 751 mmHg 68%
    01:00 +18°C° 0 mm 1 mps 751 mmHg 68%
    02:00 +18°C° 0 mm 1 mps 751 mmHg 67%
    03:00 +17°C° 0 mm 2 mps 751 mmHg 65%
    04:00 +17°C° 0 mm 2 mps 751 mmHg 64%
    05:00 +17°C° 0 mm 2 mps 751 mmHg 61%
    06:00 +17°C° 0 mm 3 mps 751 mmHg 57%
    07:00 +16°C° 0 mm 3 mps 752 mmHg 54%
    08:00 +20°C° 0 mm 3 mps 752 mmHg 43%
    09:00 +23°C° 0 mm 4 mps 752 mmHg 33%
    10:00 +27°C° 0 mm 4 mps 752 mmHg 22%
    11:00 +28°C° 0 mm 4 mps 752 mmHg 20%
    12:00 +29°C° 0 mm 4 mps 752 mmHg 19%
    13:00 +30°C° 0 mm 4 mps 751 mmHg 17%
    14:00 +30°C° 0 mm 4 mps 751 mmHg 18%
    15:00 +30°C° 0 mm 3 mps 750 mmHg 18%
    16:00 +30°C° 0 mm 3 mps 750 mmHg 19%
    17:00 +27°C° 0 mm 3 mps 750 mmHg 25%
    18:00 +24°C° 0 mm 2 mps 751 mmHg 30%
    19:00 +20°C° 0 mm 2 mps 751 mmHg 36%
    20:00 +20°C° 0 mm 2 mps 752 mmHg 35%
    21:00 +19°C° 0 mm 2 mps 752 mmHg 35%
    22:00 +19°C° 0 mm 2 mps 752 mmHg 34%
    23:00 +19°C° 0 mm 3 mps 752 mmHg 32%

    Day after tomorrow, 20 August, Monday

    Time Temperature Precipitation Wind Pressure Humidity
    00:00 +18°C° 0 mm 4 mps 753 mmHg 29%
    01:00 +17°C° 0 mm 5 mps 753 mmHg 27%
    02:00 +16°C° 0 mm 5 mps 752 mmHg 26%
    03:00 +16°C° 0 mm 6 mps 752 mmHg 26%
    04:00 +15°C° 0 mm 6 mps 752 mmHg 25%
    05:00 +15°C° 0 mm 6 mps 753 mmHg 26%
    06:00 +14°C° 0 mm 6 mps 753 mmHg 28%
    07:00 +14°C° 0 mm 6 mps 754 mmHg 29%
    08:00 +16°C° 0 mm 6 mps 754 mmHg 27%
    09:00 +19°C° 0 mm 6 mps 754 mmHg 25%
    10:00 +21°C° 0 mm 6 mps 755 mmHg 24%
    11:00 +22°C° 0 mm 6 mps 754 mmHg 23%
    12:00 +23°C° 0 mm 5 mps 753 mmHg 22%
    13:00 +25°C° 0 mm 5 mps 753 mmHg 21%
    14:00 +25°C° 0 mm 5 mps 752 mmHg 21%
    15:00 +23°C° 0 mm 4 mps 751 mmHg 22%
    16:00 +23°C° 0 mm 4 mps 751 mmHg 22%
    17:00 +20°C° 0 mm 3 mps 751 mmHg 29%
    18:00 +18°C° 0 mm 3 mps 752 mmHg 36%
    19:00 +15°C° 0 mm 2 mps 752 mmHg 43%
    20:00 +15°C° 0 mm 2 mps 752 mmHg 46%
    21:00 +13°C° 0 mm 3 mps 753 mmHg 48%
    22:00 +13°C° 0 mm 3 mps 753 mmHg 51%
    23:00 +12°C° 0 mm 3 mps 753 mmHg 53%

    21 August, Tuesday

    Time Temperature Precipitation Wind Pressure Humidity
    00:00 +12°C° 0 mm 3 mps 753 mmHg 55%
    01:00 +12°C° 0 mm 3 mps 753 mmHg 56%
    02:00 +12°C° 0 mm 3 mps 753 mmHg 61%
    03:00 +12°C° 0 mm 3 mps 752 mmHg 65%
    04:00 +12°C° 0 mm 3 mps 752 mmHg 70%
    05:00 +12°C° 0 mm 3 mps 752 mmHg 71%
    06:00 +12°C° 0 mm 3 mps 753 mmHg 72%
    07:00 +12°C° 0 mm 3 mps 753 mmHg 74%
    08:00 +15°C° 0 mm 4 mps 753 mmHg 62%
    09:00 +19°C° 0 mm 4 mps 753 mmHg 50%
    10:00 +22°C° 0 mm 4 mps 753 mmHg 39%
    11:00 +22°C° 0 mm 4 mps 753 mmHg 39%
    12:00 +23°C° 0 mm 4 mps 752 mmHg 39%
    13:00 +25°C° 0 mm 4 mps 751 mmHg 39%
    14:00 +23°C° 0 mm 4 mps 750 mmHg 42%
    15:00 +23°C° 0 mm 4 mps 750 mmHg 46%
    16:00 +24°C° 0 mm 3 mps 749 mmHg 49%
    17:00 +20°C° 0 mm 3 mps 750 mmHg 58%
    18:00 +18°C° 0 mm 2 mps 750 mmHg 68%
    19:00 +16°C° 0 mm 2 mps 750 mmHg 78%
    20:00 +16°C° 0 mm 2 mps 751 mmHg 81%
    21:00 +15°C° 0 mm 1 mps 751 mmHg 84%
    22:00 +15°C° 0 mm 1 mps 752 mmHg 87%
    23:00 +14°C° 0 mm 1 mps 752 mmHg 88%

    22 August, Wednesday

    Time Temperature Precipitation Wind Pressure Humidity
    00:00 +14°C° 0 mm 1 mps 751 mmHg 90%
    01:00 +14°C° 0 mm 1 mps 751 mmHg 91%
    02:00 +14°C° 0 mm 1 mps 751 mmHg 92%
    03:00 +14°C° 0 mm 1 mps 751 mmHg 93%
    04:00 +14°C° 0 mm 1 mps 751 mmHg 93%
    05:00 +14°C° 0 mm 1 mps 751 mmHg 93%
    06:00 +14°C° 0 mm 2 mps 751 mmHg 93%
    07:00 +14°C° 0 mm 2 mps 752 mmHg 92%
    08:00 +17°C° 0 mm 2 mps 752 mmHg 78%
    09:00 +20°C° 0 mm 2 mps 752 mmHg 64%
    10:00 +25°C° 0 mm 2 mps 752 mmHg 50%
    11:00 +26°C° 0 mm 2 mps 752 mmHg 47%
    12:00 +26°C° 0 mm 2 mps 751 mmHg 44%
    13:00 +27°C° 0 mm 2 mps 750 mmHg 41%
    14:00 +27°C° 0 mm 3 mps 750 mmHg 43%
    15:00 +26°C° 0 mm 3 mps 749 mmHg 44%
    16:00 +26°C° 0 mm 3 mps 749 mmHg 46%
    17:00 +24°C° 0 mm 2 mps 749 mmHg 54%
    18:00 +20°C° 0 mm 2 mps 750 mmHg 63%
    19:00 +18°C° 0 mm 2 mps 750 mmHg 71%
    20:00 +18°C° 0 mm 2 mps 750 mmHg 74%
    21:00 +17°C° 0 mm 2 mps 751 mmHg 77%
    22:00 +16°C° 0 mm 2 mps 751 mmHg 81%
    23:00 +16°C° 0 mm 2 mps 751 mmHg 83%

    23 August, Thursday

    Time Temperature Precipitation Wind Pressure Humidity
    00:00 +16°C° 0 mm 1 mps 751 mmHg 85%
    01:00 +15°C° 0 mm 1 mps 750 mmHg 88%
    02:00 +15°C° 0 mm 1 mps 750 mmHg 89%
    03:00 +15°C° 0 mm 1 mps 750 mmHg 91%
    04:00 +15°C° 0 mm 1 mps 750 mmHg 92%
    05:00 +15°C° 0 mm 1 mps 750 mmHg 92%
    06:00 +15°C° 0 mm 1 mps 751 mmHg 92%
    07:00 +15°C° 0 mm 1 mps 751 mmHg 92%
    08:00 +19°C° 0 mm 1 mps 752 mmHg 79%
    09:00 +23°C° 0 mm 1 mps 752 mmHg 66%
    10:00 +26°C° 0 mm 1 mps 752 mmHg 52%
    11:00 +27°C° 0 mm 1 mps 751 mmHg 49%
    12:00 +27°C° 0 mm 2 mps 751 mmHg 46%
    13:00 +28°C° 0 mm 2 mps 750 mmHg 43%
    14:00 +28°C° 0 mm 3 mps 749 mmHg 45%
    15:00 +27°C° 0 mm 3 mps 749 mmHg 47%
    16:00 +26°C° 0 mm 3 mps 749 mmHg 49%
    17:00 +24°C° 0 mm 3 mps 749 mmHg 57%
    18:00 +21°C° 0 mm 3 mps 750 mmHg 65%
    19:00 +19°C° 0 mm 3 mps 750 mmHg 73%
    20:00 +19°C° 0 mm 3 mps 750 mmHg 77%
    21:00 +18°C° 0 mm 2 mps 751 mmHg 80%
    22:00 +18°C° 0 mm 2 mps 751 mmHg 84%
    23:00 +17°C° 0 mm 2 mps 751 mmHg 85%
    Show more